Weather History for Peru, IN

Change the Weather History Date:

Monday, May 20, 2013

  Actual Average Record
Temperature  
Mean Temperature 76 °F -  
Max Temperature 84 °F 69 °F 89 °F (2012)
Min Temperature 69 °F 52 °F 39 °F (2002)
Cooling Degree Days 12    
Growing Degree Days 26 (Base 50)    
Moisture  
Dew Point 69 °F    
Average Humidity 78    
Maximum Humidity 100    
Minimum Humidity 57    
Precipitation  
Precipitation 0.00 in - - ()
Sea Level Pressure  
Sea Level Pressure 29.88 in    
Wind  
Wind Speed 12 mph (SSW)    
Max Wind Speed 22 mph    
Max Gust Speed 29 mph    
Visibility 10 miles    
Events Rain    
Averages and records for this station are not official NWS values.
T = Trace of Precipitation, MM = Missing Value Source: NWS Daily Summary

Daily Weather History Graph

Daily Weather History Graph

Search for Another Location

Airport:

Trip Planner

Search our weather history database for the weather conditions in past years. The results will help you decide how hot, cold, wet, or windy it might be!

Date:

Astronomy

May. 20, 2013 Rise Set
Actual Time 6:23 AM EDT 8:59 PM EDT
Civil Twilight 5:51 AM EDT 9:31 PM EDT
Nautical Twilight 5:12 AM EDT 10:10 PM EDT
Astronomical Twilight 4:27 AM EDT 10:55 PM EDT
Moon 4:05 PM EDT (5/20) 3:19 AM EDT (5/20)
Length of Visible Light 15h 39m
Length of Day
14h 36m
Waxing Gibbous, 75% of the Moon is Illuminated
May 20
Waxing Gibbous
May 25
Full
May 31
Last Quarter
Jun 8
New
Jun 16
First Quarter

Hourly Weather History & Observations

Time (EDT) Temp. Heat Index Dew Point Humidity Pressure Visibility Wind Dir Wind Speed Gust Speed Precip Events Conditions
12:58 AM 71.1 °F - 66.4 °F 85% 29.88 in 10.0 mi SSE 10.4 mph - N/A   Clear
1:58 AM 73.4 °F - 66.6 °F 79% 29.87 in 10.0 mi South 11.5 mph - N/A   Scattered Clouds
2:58 AM 71.6 °F - 67.1 °F 86% 29.86 in 10.0 mi South 10.4 mph - N/A   Clear
3:58 AM 70.2 °F - 68.0 °F 93% 29.86 in 10.0 mi South 8.1 mph - N/A   Clear
4:58 AM 69.6 °F - 68.9 °F 98% 29.86 in 10.0 mi SSE 8.1 mph - N/A   Clear
5:58 AM 69.1 °F - 69.1 °F 100% 29.86 in 10.0 mi South 6.9 mph - N/A   Clear
6:08 AM 69.8 °F - 69.8 °F 100% 29.87 in 9.0 mi South 8.1 mph - N/A   Clear
6:58 AM 70.3 °F - 70.3 °F 100% 29.89 in 6.0 mi South 10.4 mph - N/A   Scattered Clouds
7:58 AM 71.4 °F - 70.7 °F 98% 29.91 in 6.0 mi SSW 11.5 mph - N/A   Scattered Clouds
8:58 AM 74.8 °F - 71.2 °F 88% 29.91 in 10.0 mi SW 15.0 mph - N/A   Mostly Cloudy
9:33 AM 75.2 °F - 71.6 °F 89% 29.91 in 10.0 mi SW 12.7 mph - N/A   Mostly Cloudy
9:58 AM 76.6 °F - 70.7 °F 82% 29.91 in 10.0 mi SW 15.0 mph - N/A   Mostly Cloudy
10:03 AM 77.0 °F - 71.6 °F 83% 29.90 in 10.0 mi SSW 16.1 mph - N/A   Mostly Cloudy
10:33 AM 78.8 °F - 71.6 °F 78% 30.12 in 10.0 mi SSW 15.0 mph - N/A   Clear
10:53 AM 77.0 °F - 69.8 °F 78% 29.91 in 10.0 mi SW 12.7 mph - N/A   Mostly Cloudy
10:58 AM 77.0 °F - 70.2 °F 79% 29.90 in 10.0 mi SW 13.8 mph - N/A   Mostly Cloudy
11:03 AM 77.0 °F - 69.8 °F 78% 29.91 in 10.0 mi SW 13.8 mph - N/A   Mostly Cloudy
11:08 AM 77.0 °F - 69.8 °F 78% 29.90 in 10.0 mi SW 15.0 mph - N/A   Mostly Cloudy
11:58 AM 79.9 °F - 70.0 °F 72% 29.91 in 10.0 mi SSW 13.8 mph - N/A   Partly Cloudy
12:58 PM 82.2 °F 85.5 °F 68.9 °F 64% 29.87 in 10.0 mi South 12.7 mph 26.5 mph N/A   Partly Cloudy
1:27 PM 84.2 °F 88.4 °F 69.8 °F 62% 29.87 in 10.0 mi South 12.7 mph 23.0 mph N/A   Scattered Clouds
1:58 PM 83.1 °F 86.3 °F 68.5 °F 61% 29.87 in 10.0 mi SSW 16.1 mph - N/A   Scattered Clouds
2:58 PM 84.9 °F 88.2 °F 68.2 °F 57% 29.85 in 10.0 mi South 17.3 mph 28.8 mph N/A   Partly Cloudy
3:43 PM 82.4 °F 85.4 °F 68.0 °F 62% 29.86 in 10.0 mi SSW 19.6 mph - N/A Rain Light Rain
3:49 PM 82.4 °F 86.3 °F 69.8 °F 66% 29.86 in 10.0 mi SSW 21.9 mph 27.6 mph N/A   Mostly Cloudy
3:58 PM 80.1 °F 82.9 °F 69.3 °F 69% 29.86 in 10.0 mi South 18.4 mph 27.6 mph 0.00 in   Mostly Cloudy
4:58 PM 83.5 °F 87.2 °F 69.3 °F 62% 29.86 in 10.0 mi SSW 16.1 mph - N/A   Clear
5:58 PM 82.9 °F 86.0 °F 68.2 °F 61% 29.86 in 10.0 mi SW 12.7 mph 24.2 mph N/A   Partly Cloudy
6:58 PM 82.9 °F 86.0 °F 68.2 °F 61% 29.83 in 10.0 mi South 19.6 mph 27.6 mph N/A   Clear
7:58 PM 80.1 °F 82.4 °F 67.3 °F 65% 29.82 in 10.0 mi SSW 13.8 mph - N/A   Clear
8:58 PM 76.8 °F - 66.9 °F 71% 29.81 in 10.0 mi SSW 6.9 mph - N/A   Clear
9:58 PM 74.5 °F - 66.7 °F 77% 29.81 in 10.0 mi South 8.1 mph - N/A   Clear
10:58 PM 73.4 °F - 67.3 °F 81% 29.83 in 10.0 mi SSE 8.1 mph - N/A   Clear
11:58 PM 72.1 °F - 67.5 °F 85% 29.81 in 10.0 mi SE 8.1 mph - N/A   Clear